TimeCDT,TemperatureF,Dew PointF,Humidity,Sea Level PressureIn,VisibilityMPH,Wind Direction,Wind SpeedMPH,Gust SpeedMPH,PrecipitationIn,Events,Conditions,WindDirDegrees,DateUTC
12:53 AM,55.9,55.0,97,29.98,10.0,Calm,Calm,-,N/A,,Clear,0,2012-10-03 05:53:00
1:53 AM,55.9,55.0,97,29.98,10.0,Calm,Calm,-,N/A,,Clear,0,2012-10-03 06:53:00
2:53 AM,55.0,54.0,96,29.98,10.0,Calm,Calm,-,N/A,,Clear,0,2012-10-03 07:53:00
3:53 AM,54.0,53.1,97,29.98,10.0,Calm,Calm,-,N/A,,Clear,0,2012-10-03 08:53:00
4:53 AM,53.1,52.0,96,29.99,10.0,Calm,Calm,-,N/A,,Clear,0,2012-10-03 09:53:00
5:53 AM,51.1,51.1,100,30.01,9.0,Calm,Calm,-,N/A,,Clear,0,2012-10-03 10:53:00
6:53 AM,51.1,51.1,100,30.02,9.0,Calm,Calm,-,N/A,,Clear,0,2012-10-03 11:53:00
7:53 AM,54.0,52.0,93,30.03,10.0,Calm,Calm,-,N/A,,Clear,0,2012-10-03 12:53:00
8:53 AM,59.0,55.0,87,30.05,10.0,Calm,Calm,-,N/A,,Clear,0,2012-10-03 13:53:00
9:53 AM,63.0,55.9,78,30.07,10.0,Calm,Calm,-,N/A,,Clear,0,2012-10-03 14:53:00
10:53 AM,66.9,57.0,70,30.07,10.0,SSE,3.5,-,N/A,,Clear,150,2012-10-03 15:53:00
11:53 AM,73.0,55.9,55,30.07,10.0,SSE,6.9,-,N/A,,Clear,160,2012-10-03 16:53:00
12:53 PM,73.9,53.1,48,30.06,10.0,Variable,5.8,-,N/A,,Clear,0,2012-10-03 17:53:00
1:53 PM,75.0,57.0,53,30.04,10.0,SSE,10.4,-,N/A,,Partly Cloudy,160,2012-10-03 18:53:00
2:53 PM,75.9,57.0,52,30.02,10.0,Variable,4.6,-,N/A,,Clear,0,2012-10-03 19:53:00
3:53 PM,77.0,54.0,45,30.02,10.0,South,6.9,-,N/A,,Clear,180,2012-10-03 20:53:00
4:53 PM,75.9,55.0,48,30.02,10.0,South,4.6,-,N/A,,Clear,190,2012-10-03 21:53:00
5:53 PM,75.0,55.9,51,30.03,10.0,SSE,4.6,-,N/A,,Clear,160,2012-10-03 22:53:00
6:53 PM,66.9,62.1,84,30.03,10.0,Calm,Calm,-,N/A,,Clear,0,2012-10-03 23:53:00
7:53 PM,62.1,60.1,93,30.05,10.0,Calm,Calm,-,N/A,,Clear,0,2012-10-04 00:53:00
8:53 PM,61.0,60.1,97,30.07,10.0,Calm,Calm,-,N/A,,Clear,0,2012-10-04 01:53:00
9:53 PM,59.0,59.0,100,30.09,9.0,Calm,Calm,-,N/A,,Clear,0,2012-10-04 02:53:00
10:53 PM,59.0,57.9,96,30.10,8.0,Calm,Calm,-,N/A,,Clear,0,2012-10-04 03:53:00
11:53 PM,57.9,57.0,97,30.10,6.0,Calm,Calm,-,N/A,,Clear,0,2012-10-04 04:53:00